Temperature
20 20 20 20 18 17 18 19 20 20 20 20 20 19 18 18 18 17 17 17 17 17 17 17 18 18 18 18 17 17 17 17 17 17 17 17 17 17 17 18 18 18 18 18 18 18 18 18 18
21 21 20 20 17 18 19 19 19 20 20 20 19 19 18 17 17 17 17 17 17 17 17 18 18 18 18 18 17 17 17 17 17 17 17 17 17 17 17 17 17 17 17 17 17 18 18 18 17
21 20 20 17 18 18 19 19 20 20 21 20 19 18 18 17 17 17 17 17 17 17 18 18 18 18 18 17 17 17 17 17 17 17 17 17 17 17 17 17 17 17 17 17 17 17 17 17 17
21 20 20 18 19 19 19 19 20 20 20 20 19 18 18 18 18 17 17 17 18 17 18 18 18 17 17 17 17 17 17 17 17 17 17 17 17 17 17 17 17 17 17 17 17 17 17 17 17
21 20 18 18 19 19 19 20 20 20 19 19 18 17 17 18 18 18 18 18 18 18 18 18 17 17 17 17 17 17 17 17 17 17 17 17 17 17 17 17 17 17 17 17 17 17 17 17 17
21 19 17 18 19 19 19 20 20 19 19 18 18 17 17 18 18 18 18 18 18 18 18 17 17 17 17 17 17 17 17 17 17 17 17 17 17 17 17 17 17 17 17 17 17 17 17 17 17
20 17 18 18 18 19 20 20 20 19 19 19 18 17 17 17 18 18 18 18 18 18 18 17 17 17 17 17 17 17 17 17 17 16 16 16 17 17 17 17 17 17 17 17 17 17 17 17 17
21 17 18 18 19 19 20 20 20 19 19 19 18 17 17 18 18 18 18 18 17 17 17 17 17 17 17 17 17 17 17 17 16 16 16 16 16 17 17 17 17 17 17 17 17 17 17 17 17
22 17 18 19 19 19 20 20 20 19 19 19 18 18 18 18 18 18 18 17 17 17 17 17 17 17 17 17 17 17 17 16 16 16 16 16 16 16 16 17 17 17 17 17 17 17 17 17 17
21 17 19 20 20 19 20 20 20 19 18 18 18 18 18 18 18 18 18 18 17 17 17 17 17 17 17 17 17 17 17 16 16 16 16 16 16 16 16 16 16 16 17 17 17 17 17 17 17
20 19 20 21 21 21 20 20 20 19 17 18 18 18 18 18 18 18 18 18 18 18 17 17 17 17 17 17 17 17 17 17 17 16 16 16 16 16 16 16 16 16 16 17 17 17 17 17 16
20 20 21 21 22 21 20 20 19 19 19 19 18 18 18 18 18 18 18 18 18 17 17 17 17 17 17 17 17 17 17 17 17 17 17 16 16 16 16 16 16 16 16 16 17 17 17 17 16
20 21 21 21 21 21 21 20 19 19 19 19 18 18 18 18 18 18 18 18 18 18 18 17 17 17 17 17 17 17 17 17 17 17 17 17 17 16 16 16 16 16 16 16 16 16 17 17 16
21 21 21 21 21 21 20 19 19 18 19 18 18 18 18 18 18 18 18 18 18 18 18 17 17 17 17 17 17 17 17 17 17 17 16 16 16 16 16 16 16 16 16 16 16 16 16 16 16
22 20 20 21 21 20 20 18 18 19 19 18 18 18 18 18 18 18 18 18 18 18 18 17 17 17 17 17 17 17 17 17 17 16 16 16 16 16 16 16 16 16 16 16 16 16 16 16 16
20 19 19 20 21 21 19 18 18 19 19 18 18 18 18 19 19 18 18 18 18 18 18 17 17 17 17 17 16 16 16 16 16 16 16 16 16 16 16 16 16 16 16 16 16 16 16 16 16
19 18 18 20 21 20 19 18 18 19 19 18 18 19 19 19 18 18 18 18 18 18 18 17 17 17 17 17 16 16 16 16 16 16 16 16 16 16 16 16 16 16 16 16 16 16 16 16 16
18 18 19 19 20 20 19 18 18 19 19 19 18 18 19 19 19 18 18 18 18 18 18 17 17 17 17 16 16 16 16 16 16 16 16 16 16 16 16 16 16 16 16 16 16 16 16 16 16
19 19 19 20 21 20 19 18 18 19 19 18 18 18 19 19 19 19 18 18 18 18 18 17 17 17 17 16 16 16 16 16 16 16 16 16 16 16 16 16 16 16 16 16 16 16 16 16 16
20 19 19 20 21 20 19 18 18 18 18 18 18 18 18 19 19 18 18 18 18 18 18 17 17 17 17 16 16 16 16 16 16 16 16 16 16 16 16 16 16 15 15 15 15 15 16 15 16
20 19 19 20 20 20 19 18 18 18 19 19 19 18 18 18 18 18 18 18 18 18 18 17 17 17 17 16 16 16 16 16 16 16 16 16 16 15 16 16 15 15 15 15 15 15 15 15 15
20 21 21 20 19 18 19 17 17 17 17 18 18 18 18 18 19 18 18 18 18 18 18 17 17 17 17 17 16 16 16 16 16 16 16 16 15 15 15 15 15 15 15 15 15 15 15 15 15
20 21 21 20 19 18 18 17 17 17 17 17 18 18 19 19 19 19 19 19 18 18 18 17 17 17 17 17 16 16 16 16 16 16 16 16 15 15 15 15 15 15 15 15 15 15 15 15 15
22 20 19 18 17 17 18 17 17 16 17 18 18 19 19 19 19 19 19 19 18 18 18 17 17 17 17 17 16 16 16 16 16 16 16 16 16 15 15 15 15 15 15 15 15 15 15 15 15
20 17 17 17 16 17 18 18 18 18 19 19 19 19 19 19 19 19 19 18 18 18 18 17 17 17 17 17 17 16 16 16 16 16 16 16 16 16 15 15 15 15 15 15 15 15 15 15 15
19 18 17 17 17 17 18 18 19 20 21 21 20 20 19 19 19 19 19 19 18 18 18 18 17 17 17 17 17 16 16 16 16 16 16 16 16 16 16 15 15 15 15 15 15 15 15 15 14
19 18 18 17 18 17 18 18 20 20 20 19 20 19 19 19 19 19 19 19 19 18 18 18 18 17 17 17 17 17 16 16 16 16 16 16 16 16 16 15 15 15 15 15 15 15 14 14 14
20 19 17 17 17 17 18 18 18 19 19 19 19 19 19 19 19 19 19 19 19 19 18 18 18 18 17 17 17 17 17 17 16 16 16 16 16 16 16 15 15 15 15 15 15 14 14 14 14
20 20 18 16 16 16 17 18 19 19 19 19 19 20 20 20 20 19 19 19 19 19 18 18 18 18 17 17 17 17 17 17 16 16 16 16 16 16 16 15 15 15 15 15 15 14 14 14 14
20 19 18 17 17 16 16 17 20 19 19 19 20 20 20 20 20 20 19 19 19 19 18 18 18 18 17 17 17 17 17 17 16 16 16 16 16 16 16 15 15 15 15 15 15 14 14 14 14
Wind_Speed
3 1 3 3 5 5 3 2 2 2 4 5 9 10 9 7 5 6 3 7 8 6 8 12 14 14 15 15 14 14 14 14 14 14 14 14 13 13 13 13 12 12 12 11 11 11 10 10 10
1 1 3 4 5 4 2 1 4 5 6 6 8 9 8 7 5 6 5 7 9 8 9 11 14 14 15 15 14 14 13 13 13 13 13 13 13 13 12 12 12 12 12 11 11 10 10 9 9
1 1 3 4 3 4 4 2 6 6 6 5 5 6 5 4 4 4 6 9 9 8 10 12 14 14 14 14 14 13 13 13 13 12 13 13 12 12 12 11 11 11 11 11 10 10 10 9 9
3 4 5 5 5 2 6 4 6 6 7 7 6 6 4 3 3 7 10 10 10 8 11 12 13 14 13 13 13 13 12 12 12 12 12 12 12 11 11 11 10 10 10 10 10 9 9 10 9
4 4 6 4 4 3 4 5 5 6 4 6 7 7 4 3 8 10 10 10 10 7 10 12 13 13 13 13 12 12 11 11 11 11 10 10 10 10 10 9 9 9 9 9 9 8 9 9 9
4 5 5 4 4 3 3 5 8 10 8 7 8 6 3 3 7 9 9 9 9 8 9 11 13 13 12 11 10 10 10 9 9 9 9 9 9 9 8 9 9 8 8 8 8 8 8 9 9
5 5 4 5 5 4 3 3 6 7 7 4 5 5 3 3 6 8 8 8 7 8 8 7 10 11 11 10 9 8 8 7 7 6 6 7 7 7 7 7 7 7 7 7 6 7 7 8 8
5 5 4 3 6 4 3 4 5 7 6 5 4 7 5 5 6 7 7 7 7 6 6 6 6 7 7 7 7 6 6 6 5 4 4 5 4 4 5 5 5 6 6 6 6 6 7 7 8
4 6 3 3 5 5 5 6 4 5 7 4 4 5 7 9 8 8 6 5 6 6 4 5 5 5 5 5 4 3 4 4 4 3 3 3 3 3 3 3 4 5 5 5 5 6 6 6 7
5 5 3 3 6 7 6 7 5 6 7 6 7 7 8 8 8 8 7 6 6 6 6 5 5 5 4 3 3 2 2 3 3 4 4 3 2 2 2 3 4 5 6 6 5 6 5 6 6
4 5 4 5 7 8 8 6 4 9 6 7 11 11 9 9 7 7 7 6 5 6 6 6 5 5 4 3 4 3 3 3 3 4 4 4 3 3 3 4 6 7 6 7 7 6 5 5 5
6 4 5 6 6 7 6 6 6 6 7 9 12 12 9 8 7 7 6 5 5 6 5 5 5 4 4 5 5 4 4 4 4 4 5 5 3 2 3 3 5 5 5 5 6 6 6 5 5
7 5 7 8 8 8 9 7 7 5 8 10 11 10 9 8 7 6 6 6 6 6 5 5 5 5 4 5 4 5 4 4 5 6 6 6 4 2 3 3 5 5 6 5 5 6 6 6 6
6 7 6 8 8 6 10 5 6 6 10 10 10 9 8 7 7 6 6 6 6 5 5 5 5 5 6 4 3 4 5 6 8 7 7 8 6 5 4 4 5 5 6 6 5 5 5 4 5
7 7 5 3 5 5 9 5 4 8 11 10 9 8 7 6 7 7 7 7 7 6 6 6 6 5 6 5 5 5 6 8 7 7 8 9 8 7 6 4 4 5 7 8 7 6 6 5 5
5 5 2 2 4 5 7 4 4 8 11 10 8 7 7 6 6 6 7 7 7 6 6 6 7 6 6 5 5 6 7 7 7 8 9 9 9 9 7 4 4 6 8 7 4 4 5 5 5
3 3 3 3 4 4 5 5 6 7 11 10 9 8 7 6 5 6 7 8 7 7 7 7 7 7 6 6 6 7 7 7 8 8 8 9 9 9 7 4 4 6 6 4 4 4 3 4 4
4 4 3 4 5 6 5 5 7 8 11 11 9 8 8 8 7 7 7 7 7 7 8 8 7 6 6 5 5 4 5 5 7 8 8 9 9 9 8 5 5 6 4 4 4 4 4 3 3
7 4 3 4 4 5 6 6 9 9 9 10 9 9 9 8 7 6 7 7 7 7 8 7 7 6 5 4 3 3 2 2 3 4 7 8 9 9 7 4 4 5 4 4 4 3 4 4 3
4 3 2 1 3 4 5 5 7 8 10 12 12 11 10 7 5 6 7 7 7 7 7 7 7 6 5 4 3 3 3 1 1 3 6 7 8 8 6 5 3 4 4 5 4 4 3 3 3
3 5 5 4 1 1 4 1 4 5 6 8 11 11 10 11 10 8 8 7 7 8 9 8 7 7 6 5 4 4 4 3 3 3 2 4 6 7 7 6 5 4 4 3 3 3 4 2 3
4 5 6 4 4 2 4 3 6 7 7 9 10 11 11 11 10 9 9 9 9 9 9 8 8 7 6 6 6 5 3 2 2 1 0 2 5 5 7 6 6 4 3 3 3 3 3 3 2
6 5 4 3 3 0 1 3 6 4 8 12 12 13 13 13 12 11 10 10 9 9 8 8 8 7 6 6 7 6 4 2 1 1 2 2 3 4 5 6 6 4 3 3 4 4 4 3 2
4 3 4 4 3 2 5 5 5 6 12 12 13 14 14 13 12 11 9 8 7 7 7 8 8 6 6 6 6 6 6 5 4 3 2 1 1 2 3 5 5 4 3 3 3 4 4 3 4
5 6 3 2 2 5 3 3 7 9 11 14 15 15 14 14 13 11 10 10 9 9 9 8 8 6 6 6 6 6 6 6 6 5 4 3 1 1 1 2 3 3 3 4 4 4 4 4 4
5 8 7 4 4 4 1 4 7 7 8 10 12 12 13 14 13 13 13 12 11 11 10 9 9 7 7 7 7 6 6 4 4 4 4 4 3 2 2 3 3 3 4 5 5 4 3 4 4
5 4 7 6 1 1 3 4 6 3 2 6 9 11 13 14 14 14 13 12 12 11 11 11 10 8 8 7 6 5 5 5 5 5 4 3 3 2 3 3 3 4 4 4 4 4 3 3 4
6 6 5 4 3 2 3 3 4 3 3 6 9 12 12 13 13 12 12 12 11 11 10 10 10 9 8 7 6 6 6 6 6 5 5 5 4 3 4 3 3 3 3 4 4 3 3 4 3
2 3 4 4 4 5 2 5 5 6 5 7 9 11 12 13 13 13 11 11 10 9 9 9 9 8 7 7 6 6 5 6 6 6 6 5 4 5 5 4 4 3 3 3 4 3 3 4 3
6 5 6 5 3 4 3 6 5 5 5 6 7 8 9 11 12 12 12 10 9 9 9 9 9 8 8 7 6 6 5 6 6 6 6 6 6 5 5 4 4 3 3 3 3 3 3 3 3
Wind_Direction
285 325 85 61 57 58 65 28 119 79 60 57 75 82 80 62 82 117 141 127 124 116 105 100 99 99 97 95 95 95 94 92 90 88 85 83 81 78 76 75 73 71 70 71 72 71 70 67 66
341 89 71 61 81 84 63 46 85 90 123 113 76 71 73 70 79 104 121 130 127 119 110 104 101 100 97 95 93 93 94 93 92 89 86 83 81 80 78 76 74 71 69 69 68 67 66 63 61
320 63 81 67 81 128 137 149 107 91 86 87 75 56 65 80 94 117 139 135 123 114 111 109 105 102 98 95 94 93 94 94 93 90 87 84 81 80 79 78 75 71 68 66 63 62 62 60 57
64 47 57 72 83 110 139 149 121 98 63 59 90 70 62 58 104 134 138 130 121 116 114 115 111 107 103 99 97 93 92 94 93 91 89 86 84 82 80 78 76 73 68 63 61 58 56 55 55
72 76 69 71 84 90 113 124 108 89 71 73 89 93 68 35 106 127 133 132 131 125 122 122 117 112 108 105 102 96 92 95 94 93 91 88 86 84 82 79 76 71 66 60 57 55 52 51 54
60 70 87 97 98 88 89 103 97 91 97 93 91 97 86 104 119 131 134 136 138 136 136 133 126 121 117 113 109 103 97 99 100 99 96 91 86 83 81 77 73 68 63 58 51 46 47 47 53
101 89 110 123 113 100 121 113 110 117 112 102 113 99 110 125 139 136 132 134 137 139 141 140 134 129 127 124 119 112 102 102 106 101 100 94 87 83 79 74 69 63 60 54 40 32 32 38 54
122 101 91 107 118 123 135 107 110 110 108 113 103 122 152 165 138 123 122 130 135 141 147 148 145 143 141 137 129 121 109 99 97 95 93 90 84 77 74 66 61 59 55 43 30 21 21 36 54
90 84 106 139 137 142 131 102 82 73 96 83 80 121 146 144 128 117 113 113 133 148 159 157 156 161 163 157 140 125 102 83 74 68 77 77 58 43 45 37 40 43 36 28 25 25 30 36 41
83 107 151 163 145 136 121 113 116 89 85 86 92 102 122 127 130 131 130 134 140 149 163 167 174 177 179 164 133 108 78 62 67 62 65 82 77 46 32 10 21 25 23 21 21 29 32 32 40
111 134 130 110 124 121 112 105 103 114 109 143 141 142 137 129 131 136 144 147 147 149 153 160 166 165 161 135 122 101 73 61 61 66 76 90 83 66 43 26 16 19 27 28 26 32 42 48 52
107 113 119 116 116 115 112 110 98 117 153 154 146 146 139 136 144 153 152 145 132 125 135 145 142 132 127 114 106 101 85 69 60 64 87 96 90 68 44 29 20 20 31 35 36 43 51 62 71
99 106 105 109 104 105 100 99 106 115 135 139 140 140 144 148 151 153 146 136 125 121 119 121 127 122 112 99 94 93 83 73 65 62 70 94 100 83 54 40 40 34 43 49 43 46 52 58 65
124 112 108 112 111 109 108 100 95 135 142 140 144 150 156 159 154 146 141 139 137 131 126 122 119 114 107 98 90 84 84 74 64 61 68 85 94 90 73 48 41 35 47 58 62 57 63 60 65
107 98 89 109 120 130 110 80 132 156 147 146 151 152 153 160 152 154 157 152 151 144 129 121 119 102 96 91 90 85 80 70 62 62 68 77 84 83 77 61 43 37 53 59 59 54 56 59 60
79 77 105 222 146 147 118 154 190 161 151 154 157 159 156 162 160 160 155 149 151 143 129 125 122 110 101 94 88 84 77 68 61 64 67 70 77 83 80 65 47 47 57 56 56 52 53 49 52
56 129 181 223 181 151 133 173 196 170 158 165 170 170 166 161 161 165 161 153 154 148 136 126 123 117 108 96 89 82 73 67 63 64 63 65 68 77 80 68 53 58 58 46 57 55 59 58 50
179 175 191 202 193 152 154 182 186 184 171 174 179 179 174 173 181 172 164 157 146 140 136 135 125 118 110 94 77 64 57 53 59 60 60 67 68 76 77 67 53 60 58 45 52 60 50 59 57
162 162 187 219 184 156 176 186 193 193 180 182 188 188 186 190 189 167 162 153 142 138 136 139 133 130 119 105 99 92 76 54 50 55 66 70 68 70 72 65 53 57 64 59 61 68 56 40 46
156 169 205 233 185 163 180 205 202 190 189 185 187 191 190 188 183 176 167 159 154 153 149 149 146 142 135 134 136 133 128 100 69 46 56 66 68 67 74 71 65 62 67 57 55 66 69 38 41
178 190 205 196 213 62 133 251 224 222 204 196 196 193 191 187 183 180 171 167 163 161 162 162 160 150 143 137 112 88 67 51 39 35 27 40 68 70 74 77 77 68 74 72 63 77 92 72 21
205 209 194 175 135 230 167 222 250 215 213 206 204 198 193 191 186 184 178 172 173 174 166 158 159 155 149 139 131 132 134 145 185 172 92 40 62 69 77 82 80 75 70 70 64 74 89 98 60
195 198 172 173 154 274 214 180 271 199 215 218 208 200 195 191 187 186 182 176 174 169 161 160 157 154 153 145 141 139 145 164 153 117 96 62 42 56 76 84 82 77 70 71 69 70 72 86 97
147 87 46 50 78 285 227 183 261 212 213 210 206 201 195 190 189 186 180 166 163 159 153 155 156 159 160 151 148 151 154 154 141 136 134 106 43 37 62 84 80 78 75 72 74 77 78 77 83
105 99 61 14 4 260 229 176 245 232 214 203 199 198 192 187 185 182 176 172 169 166 165 162 161 167 171 164 166 168 166 163 164 166 164 156 129 89 72 88 82 80 81 82 82 77 72 73 81
169 143 157 182 211 273 280 220 254 250 215 197 191 185 181 183 183 183 183 179 177 174 171 169 169 175 177 174 179 178 173 168 169 167 164 165 168 174 153 116 98 89 88 87 81 74 70 73 77
147 177 170 144 192 254 279 282 309 3 146 175 177 176 183 184 186 185 183 181 180 178 178 178 178 179 182 181 179 181 181 175 170 167 163 164 167 161 147 130 113 99 91 90 85 73 64 75 74
158 155 111 131 166 232 286 263 245 259 206 180 179 185 189 185 184 183 183 184 184 181 180 178 178 181 183 180 180 182 184 179 169 156 159 161 160 147 141 134 122 106 95 91 84 78 69 78 65
155 143 135 138 157 159 233 269 232 212 198 184 189 187 185 183 182 182 184 185 182 178 177 180 182 179 180 181 179 172 177 171 161 163 170 166 155 154 159 153 141 128 115 99 93 89 87 82 62
176 180 152 151 201 168 180 268 277 200 188 177 186 185 181 179 180 180 179 175 174 178 182 184 186 184 185 180 173 175 177 166 164 171 177 170 166 167 162 149 144 143 137 127 119 114 102 98 86
Height
1515 1515 1515 1517 1520 1530 1534 1531 1525 1524 1525 1526 1525 1526 1529 1533 1537 1544 1543 1542 1542 1542 1543 1543 1543 1543 1542 1542 1542 1542 1542 1541 1541 1541 1541 1540 1540 1540 1539 1539 1539 1538 1538 1537 1537 1537 1537 1537 1537
1516 1516 1517 1517 1527 1540 1539 1530 1528 1525 1526 1527 1527 1529 1531 1536 1537 1540 1541 1542 1543 1543 1544 1544 1544 1544 1544 1544 1544 1543 1543 1543 1543 1542 1542 1542 1541 1541 1541 1540 1540 1540 1539 1539 1538 1538 1538 1538 1538
1516 1516 1518 1521 1530 1538 1536 1530 1527 1526 1527 1527 1530 1532 1535 1538 1539 1540 1542 1543 1544 1545 1545 1545 1545 1545 1545 1545 1545 1545 1544 1544 1544 1544 1543 1543 1543 1543 1542 1542 1542 1541 1541 1540 1540 1539 1539 1539 1539
1516 1518 1520 1527 1532 1530 1529 1528 1526 1527 1528 1529 1531 1536 1538 1541 1541 1542 1543 1544 1545 1546 1547 1547 1547 1547 1547 1547 1546 1546 1546 1546 1545 1545 1545 1545 1544 1544 1544 1544 1543 1543 1542 1542 1541 1541 1541 1541 1540
1516 1518 1526 1533 1532 1529 1527 1527 1526 1528 1530 1533 1532 1538 1541 1543 1543 1544 1545 1546 1547 1548 1548 1549 1548 1548 1548 1548 1548 1548 1548 1547 1547 1547 1547 1547 1546 1546 1546 1545 1545 1545 1544 1544 1543 1543 1542 1542 1542
1517 1520 1534 1539 1534 1530 1529 1528 1529 1531 1534 1536 1536 1539 1543 1545 1545 1546 1547 1548 1549 1549 1550 1550 1550 1550 1550 1550 1550 1550 1550 1549 1549 1549 1549 1548 1548 1548 1548 1547 1547 1546 1546 1545 1545 1545 1544 1544 1543
1519 1525 1533 1535 1536 1534 1532 1530 1531 1532 1535 1537 1538 1541 1544 1546 1546 1547 1548 1549 1550 1551 1551 1552 1552 1552 1552 1552 1552 1552 1552 1551 1551 1551 1551 1551 1550 1550 1550 1549 1549 1548 1548 1547 1547 1547 1546 1546 1545
1518 1525 1532 1534 1535 1535 1531 1531 1533 1533 1536 1538 1539 1541 1544 1546 1547 1549 1550 1551 1552 1553 1553 1553 1554 1554 1554 1554 1554 1554 1554 1554 1553 1553 1553 1552 1552 1552 1552 1551 1551 1550 1549 1549 1549 1548 1548 1548 1547
1519 1529 1536 1534 1534 1533 1531 1532 1535 1536 1536 1539 1540 1541 1544 1546 1548 1550 1551 1552 1553 1554 1555 1555 1555 1556 1556 1556 1556 1556 1556 1555 1555 1554 1554 1554 1554 1554 1553 1553 1552 1552 1551 1551 1550 1550 1550 1549 1549
1520 1532 1531 1528 1528 1530 1531 1533 1535 1538 1539 1541 1542 1544 1546 1547 1549 1550 1551 1553 1554 1555 1555 1556 1557 1557 1557 1557 1557 1557 1557 1557 1557 1556 1556 1555 1555 1555 1555 1554 1554 1553 1553 1552 1552 1551 1551 1551 1550
1521 1528 1527 1527 1528 1530 1532 1534 1536 1538 1541 1541 1542 1544 1547 1548 1550 1551 1552 1553 1554 1555 1556 1557 1558 1558 1558 1559 1559 1559 1558 1558 1558 1557 1557 1557 1557 1557 1556 1556 1556 1555 1554 1554 1553 1553 1553 1552 1552
1523 1525 1526 1528 1530 1531 1533 1535 1537 1538 1540 1542 1543 1545 1547 1549 1551 1552 1553 1554 1555 1556 1557 1558 1559 1559 1560 1560 1560 1560 1560 1559 1559 1559 1558 1558 1558 1558 1558 1557 1557 1557 1556 1555 1555 1554 1554 1553 1553
1525 1527 1528 1530 1531 1532 1534 1536 1538 1540 1542 1544 1545 1547 1549 1550 1552 1553 1554 1555 1556 1557 1558 1559 1560 1560 1561 1561 1561 1561 1560 1560 1560 1560 1560 1559 1559 1559 1559 1559 1558 1558 1557 1557 1556 1556 1555 1555 1554
1527 1528 1530 1531 1533 1534 1536 1539 1539 1543 1544 1545 1547 1548 1550 1551 1552 1554 1555 1556 1557 1558 1559 1560 1560 1561 1561 1562 1562 1562 1561 1561 1561 1561 1561 1560 1560 1560 1560 1560 1559 1559 1559 1558 1558 1557 1557 1556 1556
1527 1530 1533 1533 1534 1536 1538 1543 1542 1543 1545 1547 1548 1550 1551 1552 1553 1554 1555 1556 1557 1558 1559 1560 1561 1562 1562 1562 1562 1562 1562 1562 1562 1562 1562 1562 1562 1561 1561 1561 1560 1560 1560 1559 1559 1558 1558 1558 1558
1530 1536 1542 1536 1534 1536 1541 1550 1543 1544 1545 1547 1548 1550 1551 1552 1553 1554 1556 1557 1558 1559 1560 1560 1562 1562 1563 1563 1563 1563 1563 1563 1563 1563 1563 1563 1562 1562 1562 1562 1561 1561 1560 1560 1560 1559 1559 1559 1559
1538 1545 1545 1539 1534 1535 1540 1546 1543 1544 1545 1546 1548 1549 1551 1552 1553 1555 1556 1557 1558 1559 1560 1561 1562 1563 1563 1564 1564 1564 1564 1564 1564 1564 1564 1563 1563 1563 1563 1562 1562 1562 1561 1561 1561 1560 1560 1560 1560
1544 1544 1542 1540 1534 1535 1540 1542 1541 1542 1544 1545 1547 1549 1550 1551 1553 1554 1555 1557 1558 1559 1560 1561 1562 1563 1563 1564 1564 1565 1565 1565 1565 1565 1565 1564 1564 1564 1564 1563 1563 1563 1562 1562 1562 1561 1561 1561 1561
1534 1538 1541 1537 1532 1535 1540 1541 1540 1541 1543 1544 1546 1547 1549 1550 1552 1554 1555 1556 1558 1559 1560 1561 1562 1563 1563 1564 1565 1565 1565 1565 1565 1565 1565 1565 1565 1565 1564 1564 1564 1563 1563 1563 1562 1562 1562 1562 1562
1532 1538 1539 1535 1530 1535 1540 1541 1538 1539 1540 1541 1543 1545 1547 1549 1551 1553 1554 1555 1557 1558 1559 1560 1561 1562 1563 1564 1565 1566 1566 1566 1566 1566 1566 1566 1566 1565 1565 1565 1564 1564 1564 1563 1563 1563 1563 1563 1563
1533 1536 1537 1537 1534 1534 1540 1545 1542 1539 1539 1540 1541 1542 1545 1546 1548 1550 1552 1554 1556 1557 1558 1560 1561 1562 1563 1564 1565 1566 1566 1566 1566 1566 1567 1566 1566 1566 1566 1565 1565 1564 1564 1564 1564 1564 1564 1564 1564
1535 1528 1529 1533 1541 1548 1543 1558 1544 1538 1538 1538 1539 1540 1542 1544 1546 1548 1550 1552 1554 1556 1557 1559 1560 1562 1563 1564 1565 1565 1566 1566 1567 1567 1567 1567 1567 1567 1566 1566 1565 1565 1565 1565 1564 1564 1564 1564 1564
1527 1524 1527 1532 1540 1547 1545 1553 1547 1538 1539 1535 1535 1536 1538 1541 1544 1546 1548 1550 1552 1554 1556 1558 1560 1561 1563 1564 1564 1565 1566 1567 1567 1567 1567 1567 1567 1567 1567 1567 1566 1565 1565 1565 1565 1564 1564 1564 1564
1521 1527 1532 1537 1544 1555 1545 1550 1548 1538 1530 1528 1529 1532 1534 1538 1541 1544 1546 1549 1551 1553 1555 1557 1559 1560 1562 1563 1564 1565 1566 1566 1567 1567 1567 1567 1567 1568 1567 1567 1567 1566 1566 1565 1565 1565 1564 1564 1564
1524 1540 1555 1558 1562 1558 1540 1543 1540 1522 1518 1519 1522 1526 1531 1535 1538 1541 1544 1547 1549 1551 1553 1555 1557 1559 1561 1562 1564 1565 1566 1566 1567 1567 1567 1568 1568 1568 1568 1567 1567 1566 1566 1566 1565 1565 1565 1564 1564
1526 1535 1555 1563 1563 1555 1540 1542 1528 1513 1512 1515 1518 1523 1527 1532 1535 1538 1541 1544 1546 1549 1552 1554 1556 1558 1560 1561 1563 1564 1565 1566 1567 1567 1567 1568 1568 1568 1568 1568 1567 1567 1566 1566 1565 1565 1565 1565 1564
1526 1531 1532 1546 1548 1553 1546 1534 1521 1512 1513 1515 1518 1522 1525 1528 1532 1535 1539 1542 1544 1547 1550 1552 1555 1557 1559 1560 1562 1563 1564 1565 1566 1567 1567 1568 1568 1568 1568 1568 1568 1567 1567 1567 1566 1565 1565 1565 1565
1517 1523 1536 1545 1555 1559 1547 1539 1534 1520 1517 1515 1517 1519 1522 1526 1529 1533 1536 1539 1542 1545 1548 1551 1553 1555 1557 1559 1561 1562 1563 1565 1565 1566 1566 1567 1567 1568 1568 1568 1568 1568 1567 1567 1566 1566 1565 1565 1565
1519 1523 1529 1540 1545 1556 1557 1544 1517 1516 1514 1514 1514 1516 1519 1523 1527 1530 1534 1537 1540 1543 1546 1549 1551 1553 1556 1558 1559 1561 1562 1563 1564 1565 1566 1566 1567 1567 1567 1568 1568 1568 1567 1567 1567 1566 1566 1565 1565
1512 1517 1526 1541 1544 1545 1550 1541 1510 1511 1511 1512 1513 1515 1517 1520 1524 1528 1531 1535 1538 1541 1543 1546 1549 1551 1554 1556 1558 1559 1561 1562 1563 1564 1565 1566 1566 1566 1567 1567 1567 1567 1567 1567 1566 1566 1566 1565 1565